#timestamp,LO_Frequency,Hit,StdDev 
1669514415.7,286046998.8,N
1669514435.6,286046997.4,N
1669514455.4,286047001.9,N
1669514475.3,286046998.1,N
1669514495.1,286046995.7,N
1669514496.0,286046995.7,N
1669514515.8,286046992.9,N
1669514535.7,286046989.3,N
1669514555.5,286046993.0,N
1669514575.3,286046986.0,N
1669514595.2,286046980.8,Y
1669514615.0,286046984.2,P
1669514615.9,286046984.2,P
1669514635.8,286046992.3,N
1669514655.6,286046986.2,Y
1669514675.4,286046999.6,P
1669514695.3,286046999.3,N
1669514715.1,286046993.9,N
1669514735.9,286046992.4,N
1669514755.7,286046988.2,N
1669514775.5,286046991.6,N
1669514795.4,286046990.7,N
1669514815.2,286046991.5,N
1669514835.0,286046996.8,N
1669514835.9,286046996.8,N
1669514855.8,286046995.5,N
1669514875.6,286047004.1,N
1669514895.5,286047001.9,N
1669514915.3,286047004.3,N
1669514935.1,286047005.7,N
1669514955.9,286047000.2,N
1669514975.7,286047002.6,N
1669514995.5,286047008.2,N
1669515015.4,286047009.0,N
1669515035.2,286047013.3,N
1669515055.1,286047006.0,N
1669515056.0,286047006.0,N
1669515075.8,286047004.5,N
1669515095.6,286047005.6,N
1669515115.5,286047000.0,N
1669515135.3,286047000.2,N
1669515155.1,286046996.2,N
1669515175.9,286046993.6,N
1669515195.7,286046991.5,N
1669515215.6,286046992.8,N
1669515235.4,286046988.7,N
1669515255.2,286046982.3,N
1669515275.1,286046981.1,N
1669515276.0,286046981.1,N
1669515295.8,286046982.2,N
1669515315.6,286046983.1,N
1669515335.5,286046979.9,N
1669515355.3,286046976.2,N
1669515375.2,286046984.2,N
1669515395.9,286046985.7,N
1669515415.8,286046992.2,N
1669515435.6,286046996.9,N
1669515455.5,286047004.4,N
1669515475.3,286047006.9,N
1669515495.2,286047006.9,N
1669515515.0,286047004.1,N
1669515515.9,286047004.1,N
1669515535.8,286047002.3,N
1669515555.6,286047008.3,N
1669515575.4,286047014.1,N
1669515595.3,286047018.8,N
1669515615.1,286047019.5,N
1669515635.8,286047024.6,N
1669515655.7,286047025.5,N
1669515675.5,286047028.8,N
1669515695.4,286047032.0,N
1669515715.2,286047034.4,N
1669515735.0,286047036.4,N
1669515735.9,286047036.4,N
1669515755.8,286047031.9,N
1669515775.6,286047028.3,N
1669515795.4,286047025.0,N
1669515815.3,286047025.0,N
1669515835.1,286047024.7,N
1669515855.9,286047016.2,N
1669515875.7,286047022.6,N
1669515895.5,286047023.4,N
1669515915.4,286047022.9,N
1669515935.2,286047022.6,N
1669515955.0,286047015.8,N
1669515955.9,286047015.8,N
1669515975.8,286047016.3,N
1669515995.6,286047010.3,N
1669516015.5,286047006.5,N
1669516035.3,286047002.6,N
1669516055.1,286046998.5,N
1669516075.9,286046994.9,N
1669516095.7,286046999.6,N
1669516115.5,286047005.1,N
1669516135.4,286047008.9,N
1669516155.2,286047002.6,N
1669516175.0,286047000.8,N
1669516176.0,286047000.8,N
1669516195.8,286046997.9,N
1669516215.6,286046995.2,N
1669516235.5,286047001.1,N
1669516255.3,286047002.5,N
1669516275.1,286047002.7,N
1669516295.9,286047000.6,N
1669516315.7,286046999.1,N
1669516335.5,286046991.8,N
1669516355.4,286046990.2,N
1669516375.2,286046995.0,N
1669516395.1,286047001.1,N
1669516396.0,286047001.1,N
1669516415.8,286046998.5,N
1669516435.6,286046994.2,N
1669516455.5,286046996.5,N
1669516475.3,286046990.1,N
1669516495.1,286046999.6,N
1669516515.9,286047003.8,N
1669516535.7,286047002.6,N
1669516555.6,286047000.0,N
1669516575.4,286046998.1,N
1669516595.2,286047000.7,N
1669516615.1,286046998.1,N
1669516616.0,286046998.1,N
1669516635.8,286046997.8,N
1669516655.6,286046996.1,N
1669516675.5,286047000.7,N
1669516695.3,286047008.6,N
1669516715.2,286047004.5,N
1669516735.9,286047006.6,N
1669516755.7,286047006.4,N
1669516775.6,286047009.9,N
1669516795.4,286047004.6,N
1669516815.2,286047010.1,N
1669516835.1,286047004.8,N
1669516836.0,286047004.8,N
1669516855.8,286047008.3,N
1669516875.7,286047010.1,N
1669516895.5,286047007.4,N
1669516915.3,286047006.7,N
1669516935.2,286047006.1,N
1669516955.0,286047008.0,N
1669516955.9,286047008.0,N
1669516975.7,286047014.0,N
1669516995.6,286047013.5,N
1669517015.4,286047015.4,N
1669517035.3,286047015.6,Y
1669517055.1,286047015.1,P
1669517075.8,286047016.5,P
1669517095.7,286047019.8,P
1669517115.5,286047028.4,Y
1669517135.4,286047014.3,P
1669517155.2,286047013.4,P
1669517175.0,286047016.9,P
1669517175.9,286047016.9,Y
1669517195.8,286047006.9,P
1669517215.6,286047008.1,N
1669517235.4,286047013.2,P
1669517255.3,286047015.9,Y
1669517275.1,286047010.0,P
1669517295.9,286047009.6,P
1669517315.7,286047007.9,P
1669517335.5,286047011.6,Y
1669517355.4,286047005.2,P
1669517375.2,286047009.4,P
1669517395.1,286047017.0,P
1669517396.0,286047017.0,Y
1669517415.8,286047012.3,P
1669517435.6,286047013.9,P
1669517455.5,286047010.8,P
1669517475.3,286047009.0,Y
1669517495.2,286046992.2,P
1669517515.9,286046993.7,N
1669517535.7,286046990.5,N
1669517555.6,286046980.9,N
1669517575.4,286046975.8,N
1669517595.2,286046976.4,N
1669517615.1,286046976.1,N
1669517616.0,286046976.1,N
1669517635.8,286046975.7,N
1669517655.7,286046978.6,N
1669517675.5,286046977.9,N
1669517695.3,286046976.7,N
1669517715.2,286046979.4,N
1669517735.9,286046983.4,N
1669517755.7,286046982.3,N
1669517775.6,286046979.0,N
1669517795.4,286046977.8,N
1669517815.2,286046971.0,Y
1669517835.1,286046988.1,P
1669517836.0,286046988.1,P
1669517855.8,286046992.5,N
1669517875.7,286046994.9,N
1669517895.5,286046998.0,N
1669517915.3,286047002.6,N
1669517935.2,286047005.4,N
1669517955.0,286047010.4,N
1669517955.9,286047010.4,N
1669517975.8,286047021.3,N
1669517995.6,286047035.4,Y
